Regional Weather Roundup
Issued by NWS Midland/Odessa, TX

Skip options and go directly to product.
Home | Oldest Version | Next Version | Current Version | All | Text Only | Save Text | Print | Product List | Glossary On

Skip product version selection by date and time.   
577
ASUS44 KMAF 211701
RWRMAF
MIDLAND AREA WEATHER ROUNDUP
NATIONAL WEATHER SERVICE MIDLAND TX
1100 AM CST SUN DEC 21 2014

...IN SOUTHWEST TEXAS AND SOUTHEAST NEW MEXICO...

CITY           SKY/WX    TMP DP  RH WIND       PRES   REMARKS
ALPINE         SUNNY     56  26  31 SW9G17    30.09F
ANDREWS        FAIR      50  33  53 SW10      29.96F
ARTESIA        SUNNY     59  27  29 SW13      29.92F
BIG SPRING     MOSUNNY   55  41  61 S16       29.99F
CARLSBAD       SUNNY     56  27  32 SE10      29.94
DRYDEN           N/A     54  47  77 SW9       30.02F
FORT STOCKTON  SUNNY     61  24  24 SW9       29.99F
GUAD PASS      NOT AVBL
HOBBS          SUNNY     55  27  33 SW14      29.94F
MARFA          SUNNY     54  27  35 W18       30.08F
MIDLAND AIRPK  SUNNY     52  40  65 SW12      29.98F
MIDLAND INTL   SUNNY     52  39  61 SW10      29.97F
ODESSA         SUNNY     52  33  48 SW15      29.97F
PECOS          SUNNY     50  29  43 CALM      30.00S
PRESIDIO       FAIR      51  32  48 CALM      30.10F
SEMINOLE       SUNNY     48  36  63 W12       29.95F
SNYDER         PTSUNNY   49  42  78 SW18      29.96F
WINK           SUNNY     45  37  73 W3        29.97F
$$
...OTHER STATIONS IN TEXAS...

CITY           SKY/WX    TMP DP  RH WIND       PRES   REMARKS
ABILENE        PTSUNNY   51  44  77 S18       29.96F
AMARILLO       SUNNY     45  29  53 W8        29.83R
AUSTIN         CLOUDY    53  46  77 SE8       30.09F
BROWNSVILLE    CLOUDY    64  59  83 NW9       30.07S
CORPUS CHRISTI CLOUDY    57  53  86 N12       30.10S
DALLAS FTW     DRIZZLE   49  44  83 S10       30.05F
DEL RIO        CLOUDY    51  47  86 SE9       30.08S
EL PASO        MOSUNNY   51  30  44 SW14      30.05F
HOUSTON INT    CLOUDY    54  47  77 S3        30.13S
LUBBOCK        MOSUNNY   53  30  41 SW17      29.84F
SAN ANGELO     PTSUNNY   52  43  71 S17       30.01F
SAN ANTONIO    CLOUDY    54  48  80 SW7       30.09S
WACO           CLOUDY    50  45  83 SE12      30.10F
WICHITA FALLS  NOT AVBL
$$
...OTHER LOCATIONS IN NEW MEXICO...

CITY           SKY/WX    TMP DP  RH WIND       PRES   REMARKS
ALAMAGORDO     MOSUNNY   45  30  57 S9        30.05F WCI  40
ALBUQUERQUE    PTSUNNY   37  28  70 W5        30.06S WCI  33
CANNON AFB     NOT AVBL
CLOVIS         SUNNY     52  27  37 W18       29.85F
HOLLOMAN AFB   MOSUNNY   43  31  60 S7        30.04F WCI  39
ROSWELL        MOSUNNY   53  26  35 S5        29.93F
RUIDOSO        MOSUNNY   45  23  42 NW26G40   30.00S WCI  35
SANTA FE       SUNNY     39  24  55 N18       30.00S WCI  30
TRUTH OR CONSE PTSUNNY   42  26  53 S7        30.04S WCI  38
TUCUMCARI      PTSUNNY   50  24  36 W13       29.82F
$$

USA.gov is the U.S. government's official web portal to all federal, state and local government web resources and services.